Tracking 19651 objects as of 23-Apr-2019
HD Live streaming from Space Station
objects crossing your sky now

METEOR 2-5 DEB

Track METEOR 2-5 DEB now!
10-day predictions


NORAD ID: 39602
Int'l Code: 1979-095CD
Perigee: 825.4 km
Apogee: 848.6 km
Inclination: 81.2 °
Period: 101.5 minutes
Semi major axis: 7208 km
RCS: Unknown
Launch date: October 31, 1979
Source: Commonwealth of Independent States (former USSR) (CIS)
Launch site: PLESETSK MISSILE AND SPACE COMPLEX (PKMTR)

Note: This is SATELLITE DEBRIS
aabbcc
Your satellite tracking list
Your tracking list is empty




NASA's NSSDC Master Catalog

Two Line Element Set (TLE):
1 39602U 79095CD  19109.03579250  .00001181  00000-0  56322-3 0  9993
2 39602  81.2072 230.1103 0016051   0.8775 359.2426 14.18662927296354
Source of the keplerian elements: AFSPC